period_start,C,m1,H,J0,J1,J2,J3,J4,J5,JA,JB,JC,JD,JJ,JK,JN,#
2017-10-16 00:04:45,0.01,0.04,0.00,19.79,23.24,26.47,14.28,46.36,1032.73,2049.86,3536.03,3116.02,3558.11,599.91,612.02,2.42,0000 0000 0000 0000 000000
2017-10-16 00:09:46,0.00,0.04,0.00,19.78,23.26,26.42,14.25,46.36,1032.73,2049.69,3535.50,3116.00,3557.82,599.82,611.98,2.47,0000 0000 0000 0000 000000
2017-10-16 00:14:47,0.10,0.04,0.00,19.83,23.27,26.46,14.29,46.35,1032.73,2049.63,3533.85,3115.26,3556.35,599.89,612.01,2.52,0000 0000 0000 0000 000000
2017-10-16 00:19:49,0.02,0.05,0.00,19.80,23.29,26.44,14.32,46.41,1032.73,2049.46,3531.64,3114.03,3554.88,600.13,612.22,2.57,0000 0000 0000 0000 000000
2017-10-16 00:24:50,-0.00,0.05,0.00,19.85,23.30,26.48,14.33,46.45,1032.73,2049.09,3530.99,3114.00,3554.07,600.03,612.06,2.62,0000 0000 0000 0000 000000
2017-10-16 00:29:52,0.01,0.05,0.00,19.83,23.32,26.47,14.39,46.42,1032.74,2049.03,3530.30,3114.00,3553.78,600.23,612.21,2.67,0000 0000 0000 0000 000000
2017-10-16 00:34:53,0.01,0.05,0.00,19.86,23.32,26.55,14.35,46.33,1032.76,2049.01,3529.95,3113.99,3553.05,600.06,611.99,2.72,0000 0000 0000 0000 000000
2017-10-16 00:39:54,0.02,0.05,0.00,19.88,23.34,26.52,14.35,46.38,1032.81,2049.01,3529.14,3113.93,3552.71,599.92,611.81,2.77,0000 0000 0000 0000 000000
2017-10-16 00:44:56,0.04,0.05,0.00,19.88,23.35,26.49,14.33,46.32,1032.85,2049.00,3528.17,3113.13,3551.91,600.01,612.01,2.82,0000 0000 0000 0000 000000
2017-10-16 00:49:57,0.02,0.05,0.00,19.92,23.37,26.51,14.37,46.29,1032.90,2049.00,3527.40,3113.00,3551.07,600.13,612.07,2.87,0000 0000 0000 0000 000000
2017-10-16 00:54:58,0.01,0.05,0.00,19.88,23.37,26.57,14.27,46.33,1032.90,2049.00,3526.95,3112.99,3550.54,599.95,611.94,2.92,0000 0000 0000 0000 000000
2017-10-16 01:00:00,0.01,0.05,0.00,19.94,23.39,26.57,14.22,46.36,1032.96,2049.00,3526.21,3112.98,3550.01,599.89,611.72,2.97,0000 0000 0000 0000 000000
2017-10-16 01:05:01,0.00,0.05,0.00,19.95,23.40,26.58,14.32,46.35,1033.05,2049.00,3526.00,3112.95,3549.81,600.15,612.06,3.02,0000 0000 0000 0000 000000
2017-10-16 01:10:02,0.02,0.05,0.00,19.94,23.42,26.61,14.30,46.33,1033.04,2049.00,3525.58,3112.93,3549.14,599.96,611.96,3.07,0000 0000 0000 0000 000000
2017-10-16 01:15:03,0.01,0.06,0.00,20.00,23.43,26.61,14.28,46.29,1033.12,2048.99,3525.02,3112.79,3549.00,599.88,611.79,3.12,0000 0000 0000 0000 000000
2017-10-16 01:20:05,0.03,0.06,0.00,19.98,23.45,26.59,14.28,46.40,1033.15,2048.98,3524.80,3112.30,3548.54,599.90,611.73,3.17,0000 0000 0000 0000 000000
2017-10-16 01:25:06,0.01,0.06,0.00,20.02,23.46,26.62,14.35,46.41,1033.18,2048.96,3524.05,3112.02,3548.01,600.05,611.79,3.22,0000 0000 0000 0000 000000
2017-10-16 01:30:07,0.01,0.06,0.00,20.02,23.47,26.63,14.28,46.38,1033.20,2048.96,3523.87,3112.01,3547.76,600.13,612.05,3.27,0000 0000 0000 0000 000000
2017-10-16 01:35:08,-0.00,0.06,0.00,20.02,23.49,26.65,14.31,46.35,1033.21,2048.77,3523.10,3112.00,3547.04,600.13,612.05,3.32,0000 0000 0000 0000 000000
2017-10-16 01:40:10,-0.00,0.06,0.00,20.04,23.50,26.70,14.34,46.48,1033.21,2048.44,3522.53,3111.96,3546.48,600.14,612.01,3.37,0000 0000 0000 0000 000000
2017-10-16 01:45:11,0.01,0.06,0.00,20.04,23.52,26.75,14.30,46.28,1033.21,2048.28,3521.58,3111.68,3545.80,599.82,611.74,3.42,0000 0000 0000 0000 000000
2017-10-16 01:50:12,0.03,0.06,0.00,20.07,23.53,26.73,14.32,46.37,1033.22,2048.08,3520.61,3111.12,3544.87,600.17,611.99,3.47,0000 0000 0000 0000 000000
2017-10-16 01:55:14,0.02,0.06,0.00,20.08,23.55,26.71,14.26,46.38,1033.22,2048.03,3519.66,3111.00,3544.05,599.68,611.39,3.53,0000 0000 0000 0000 000000
2017-10-16 02:00:15,0.01,0.06,0.00,20.13,23.56,26.72,14.31,46.43,1033.22,2048.02,3519.03,3110.99,3543.67,599.86,611.60,3.58,0000 0000 0000 0000 000000
2017-10-16 02:05:16,0.01,0.06,0.00,20.08,23.57,26.72,14.26,46.39,1033.22,2048.00,3518.63,3110.96,3543.03,599.96,611.76,3.63,0000 0000 0000 0000 000000
2017-10-16 02:10:18,0.02,0.06,0.00,20.12,23.58,26.76,14.35,46.33,1033.22,2048.01,3518.02,3110.82,3542.50,600.09,611.87,3.68,0000 0000 0000 0000 000000
2017-10-16 02:15:19,0.02,0.06,0.00,20.12,23.60,26.80,14.27,46.42,1033.22,2047.99,3517.50,3110.29,3542.00,599.81,611.50,3.73,0000 0000 0000 0000 000000
2017-10-16 02:20:21,0.01,0.07,0.00,20.16,23.61,26.81,14.28,46.38,1033.22,2047.99,3517.01,3110.06,3541.54,599.87,611.48,3.78,0000 0000 0000 0000 000000
2017-10-16 02:25:22,0.01,0.07,0.00,20.16,23.62,26.79,14.32,46.30,1033.23,2047.98,3516.85,3110.02,3541.01,600.20,611.82,3.83,0000 0000 0000 0000 000000
2017-10-16 02:30:22,0.01,0.07,0.00,20.14,23.64,26.83,14.27,46.41,1033.23,2047.98,3516.09,3110.01,3540.94,599.81,611.49,3.88,0000 0000 0000 0000 000000
2017-10-16 02:35:24,0.01,0.07,0.00,20.19,23.65,26.83,14.31,46.35,1033.24,2047.96,3515.99,3110.00,3540.23,599.96,611.66,3.93,0000 0000 0000 0000 000000
2017-10-16 02:40:25,0.01,0.07,0.00,20.18,23.66,26.85,14.33,46.34,1033.25,2047.96,3515.54,3110.00,3540.01,600.07,611.68,3.98,0000 0000 0000 0000 000000
2017-10-16 02:45:26,-0.00,0.07,0.00,20.23,23.67,26.87,14.28,46.19,1033.33,2047.86,3515.01,3109.98,3539.78,599.99,611.52,4.03,0000 0000 0000 0000 000000
2017-10-16 02:50:28,-0.02,0.07,0.00,20.23,23.69,26.84,14.21,46.29,1033.39,2047.59,3514.97,3109.98,3539.08,599.70,611.34,4.08,0000 0000 0000 0000 000000
2017-10-16 02:55:29,-0.00,0.07,0.00,20.23,23.70,26.85,14.33,46.36,1033.49,2047.28,3514.33,3109.90,3539.00,600.06,611.72,4.13,0000 0000 0000 0000 000000
2017-10-16 03:00:31,0.00,0.07,0.00,20.24,23.71,26.91,14.31,46.34,1033.51,2047.16,3514.02,3109.67,3538.95,600.20,611.82,4.18,0000 0000 0000 0000 000000
2017-10-16 03:05:32,0.01,0.07,0.00,20.23,23.72,26.87,14.27,46.25,1033.53,2047.08,3513.98,3109.34,3538.25,599.63,611.29,4.23,0000 0000 0000 0000 000000
2017-10-16 03:10:33,0.01,0.07,0.00,20.25,23.74,26.93,14.29,46.25,1033.61,2047.03,3513.43,3109.05,3538.00,599.77,611.49,4.28,0000 0000 0000 0000 000000
2017-10-16 03:15:35,0.00,0.07,0.00,20.24,23.75,26.96,14.29,46.38,1033.68,2047.01,3512.99,3109.00,3537.73,599.87,611.62,4.33,0000 0000 0000 0000 000000
2017-10-16 03:20:36,0.02,0.07,0.00,20.30,23.77,26.97,14.34,46.27,1033.71,2047.00,3512.44,3109.00,3537.07,599.84,611.48,4.38,0000 0000 0000 0000 000000
2017-10-16 03:25:37,0.00,0.07,0.00,20.30,23.77,26.95,14.26,46.43,1033.71,2047.00,3512.02,3108.99,3537.00,600.02,611.61,4.43,0000 0000 0000 0000 000000
2017-10-16 03:30:39,0.00,0.07,0.00,20.28,23.79,26.99,14.28,46.34,1033.71,2047.00,3512.00,3108.98,3536.92,599.93,611.58,4.48,0000 0000 0000 0000 000000
2017-10-16 03:35:40,0.02,0.07,0.00,20.32,23.80,26.97,14.31,46.28,1033.71,2047.00,3511.69,3108.85,3536.21,599.86,611.53,4.53,0000 0000 0000 0000 000000
2017-10-16 03:40:42,0.01,0.07,0.00,20.30,23.81,26.97,14.26,46.35,1033.71,2047.00,3511.06,3108.60,3536.01,599.55,611.26,4.58,0000 0000 0000 0000 000000
2017-10-16 03:45:43,0.01,0.07,0.00,20.33,23.82,26.99,14.30,46.23,1033.72,2047.00,3511.00,3108.22,3535.99,599.77,611.29,4.63,0000 0000 0000 0000 000000
2017-10-16 03:50:44,0.00,0.07,0.00,20.34,23.83,27.03,14.33,46.35,1033.71,2047.00,3510.98,3108.06,3535.93,599.92,611.36,4.68,0000 0000 0000 0000 000000
2017-10-16 03:55:46,0.01,0.07,0.00,20.34,23.85,27.01,14.28,46.27,1033.72,2047.00,3510.73,3108.03,3535.43,600.12,611.73,4.73,0000 0000 0000 0000 000000
2017-10-16 04:00:47,0.01,0.07,0.00,20.37,23.85,27.03,14.28,46.35,1033.74,2047.00,3510.14,3108.00,3535.03,600.09,611.67,4.78,0000 0000 0000 0000 000000
2017-10-16 04:05:48,0.00,0.07,0.00,20.35,23.87,27.10,14.20,46.33,1033.75,2047.00,3510.00,3108.00,3535.00,599.41,611.10,4.83,0000 0000 0000 0000 000000
2017-10-16 04:10:50,0.00,0.07,0.00,20.35,23.87,27.10,14.29,46.27,1033.83,2047.00,3509.99,3108.00,3534.97,600.06,611.64,4.88,0000 0000 0000 0000 000000
2017-10-16 04:15:51,0.00,0.07,0.00,20.37,23.88,27.09,14.24,46.33,1033.97,2046.98,3509.92,3108.00,3534.69,599.74,611.34,4.93,0000 0000 0000 0000 000000
2017-10-16 04:20:52,0.02,0.08,0.00,20.37,23.90,27.07,14.37,46.42,1034.04,2046.97,3509.21,3107.97,3534.13,600.41,612.05,4.98,0000 0000 0000 0000 000000
2017-10-16 04:25:53,0.00,0.08,0.00,20.40,23.90,27.09,14.34,46.39,1034.14,2046.95,3509.00,3107.79,3534.00,599.95,611.55,5.03,0000 0000 0000 0000 000000
2017-10-16 04:30:54,0.00,0.08,0.00,20.39,23.92,27.12,14.27,46.37,1034.16,2046.95,3509.00,3107.70,3533.98,599.75,611.38,5.08,0000 0000 0000 0000 000000
2017-10-16 04:35:56,0.01,0.08,0.00,20.41,23.92,27.15,14.37,46.52,1034.17,2046.83,3508.95,3107.21,3533.79,599.92,611.64,5.13,0000 0000 0000 0000 000000
2017-10-16 04:40:57,0.00,0.08,0.00,20.42,23.93,27.13,14.33,46.34,1034.19,2046.77,3508.64,3107.09,3533.33,599.99,611.65,5.18,0000 0000 0000 0000 000000
2017-10-16 04:45:59,-0.01,0.08,0.00,20.40,23.95,27.14,14.30,46.40,1034.19,2046.44,3508.08,3107.05,3533.04,599.87,611.62,5.23,0000 0000 0000 0000 000000
2017-10-16 04:51:00,-0.03,0.08,0.00,20.44,23.95,27.17,14.27,46.25,1034.19,2046.26,3508.03,3107.03,3533.00,599.69,611.23,5.28,0000 0000 0000 0000 000000
2017-10-16 04:56:02,-0.00,0.07,0.00,20.42,23.96,27.16,14.25,46.40,1034.19,2046.07,3507.99,3107.00,3532.99,599.85,611.50,5.33,0000 0000 0000 0000 000000
2017-10-16 05:01:03,0.01,0.07,0.00,20.43,23.97,27.18,14.25,46.33,1034.19,2046.04,3507.91,3107.00,3532.77,599.47,611.18,5.38,0000 0000 0000 0000 000000
2017-10-16 05:06:04,0.01,0.08,0.00,20.44,23.97,27.19,14.31,46.53,1034.19,2046.03,3507.41,3106.99,3532.20,599.88,611.43,5.43,0000 0000 0000 0000 000000
2017-10-16 05:11:05,0.00,0.08,0.00,20.44,23.99,27.17,14.22,46.23,1034.19,2046.02,3507.05,3106.98,3532.03,599.85,611.52,5.48,0000 0000 0000 0000 000000
2017-10-16 05:16:06,0.00,0.08,0.00,20.48,24.00,27.17,14.25,46.33,1034.20,2046.02,3507.00,3106.98,3532.00,599.42,610.96,5.53,0000 0000 0000 0000 000000
2017-10-16 05:21:07,0.00,0.08,0.00,20.47,24.00,27.21,14.24,46.37,1034.20,2046.00,3507.00,3106.96,3532.00,599.58,611.16,5.58,0000 0000 0000 0000 000000
2017-10-16 05:26:08,0.00,0.08,0.00,20.48,24.01,27.18,14.32,46.52,1034.20,2046.00,3506.96,3106.90,3531.95,599.80,611.33,5.63,0000 0000 0000 0000 000000
2017-10-16 05:31:10,0.01,0.08,0.00,20.48,24.02,27.24,14.25,46.47,1034.20,2046.00,3506.73,3106.85,3531.71,599.79,611.32,5.68,0000 0000 0000 0000 000000
2017-10-16 05:36:11,0.03,0.08,0.00,20.47,24.02,27.24,14.28,46.30,1034.21,2046.00,3506.10,3106.38,3531.12,600.26,611.85,5.73,0000 0000 0000 0000 000000
2017-10-16 05:41:12,0.00,0.08,0.00,20.52,24.03,27.24,14.34,46.47,1034.22,2046.00,3506.00,3106.14,3531.00,600.02,611.55,5.79,0000 0000 0000 0000 000000
2017-10-16 05:46:14,0.00,0.08,0.00,20.52,24.05,27.22,14.25,46.40,1034.23,2046.00,3505.97,3106.04,3531.00,599.88,611.35,5.84,0000 0000 0000 0000 000000
2017-10-16 05:51:15,0.00,0.08,0.00,20.50,24.05,27.23,14.28,46.49,1034.28,2045.99,3505.92,3106.00,3530.94,600.02,611.61,5.89,0000 0000 0000 0000 000000
2017-10-16 05:56:16,0.02,0.08,0.00,20.52,24.05,27.24,14.29,46.42,1034.32,2045.99,3505.23,3106.00,3530.33,599.65,611.25,5.94,0000 0000 0000 0000 000000
2017-10-16 06:01:18,0.00,0.08,0.00,20.48,24.07,27.27,14.34,46.52,1034.38,2045.98,3505.01,3106.00,3530.06,600.15,611.78,5.99,0000 0000 0000 0000 000000
2017-10-16 06:06:19,-0.00,0.08,0.00,20.43,24.07,27.27,14.26,46.63,1034.56,2045.96,3505.00,3105.99,3530.00,599.76,611.70,6.04,0000 0000 0000 0000 000000
2017-10-16 06:11:20,0.00,0.08,0.00,20.43,24.07,27.17,14.30,46.66,1034.64,2045.98,3504.99,3105.99,3530.00,600.22,612.15,6.09,0000 0000 0000 0000 000000
2017-10-16 06:16:21,0.01,0.08,0.00,20.47,24.09,27.08,14.32,46.55,1034.68,2045.98,3504.79,3105.91,3529.80,599.80,611.66,6.14,0000 0000 0000 0000 000000
2017-10-16 06:21:23,0.02,0.08,0.00,20.48,24.10,27.13,14.22,46.57,1034.68,2045.94,3504.17,3105.55,3529.14,600.08,611.83,6.19,0000 0000 0000 0000 000000
2017-10-16 06:26:24,0.00,0.08,0.00,20.51,24.11,27.27,14.26,46.58,1034.68,2045.87,3504.01,3105.24,3529.01,599.87,611.63,6.24,0000 0000 0000 0000 000000
2017-10-16 06:31:25,-0.01,0.08,0.00,20.49,24.12,27.34,14.32,46.56,1034.68,2045.76,3504.00,3105.14,3529.00,600.01,611.84,6.29,0000 0000 0000 0000 000000
2017-10-16 06:36:27,-0.03,0.08,0.00,20.49,24.12,27.32,14.27,46.39,1034.69,2045.32,3503.99,3105.01,3528.99,599.84,611.71,6.34,0000 0000 0000 0000 000000
2017-10-16 06:41:28,0.01,0.08,0.00,20.45,24.14,27.43,14.35,46.62,1034.71,2045.39,3503.95,3105.01,3528.98,599.88,611.82,6.39,0000 0000 0000 0000 000000
2017-10-16 06:46:30,0.01,0.08,0.00,20.42,24.15,27.42,14.30,46.44,1034.72,2045.40,3503.71,3105.02,3528.86,600.12,612.13,6.44,0000 0000 0000 0000 000000
2017-10-16 06:51:31,0.01,0.08,0.00,20.39,24.15,27.42,14.30,46.53,1034.73,2045.28,3503.08,3105.00,3528.26,600.20,612.30,6.49,0000 0000 0000 0000 000000
2017-10-16 06:56:32,-0.01,0.08,0.00,20.41,24.15,27.35,14.29,46.42,1034.75,2045.24,3503.00,3105.00,3528.03,600.29,612.33,6.54,0000 0000 0000 0000 000000
2017-10-16 07:01:33,-0.01,0.08,0.00,20.39,24.14,27.37,14.31,46.39,1034.84,2045.12,3503.00,3105.00,3528.01,599.87,612.00,6.59,0000 0000 0000 0000 000000
2017-10-16 07:06:34,-0.00,0.08,0.00,20.40,24.14,27.34,14.35,46.57,1034.94,2045.09,3502.97,3105.00,3528.00,599.89,612.12,6.64,0000 0000 0000 0000 000000
2017-10-16 07:11:35,-0.00,0.08,0.00,20.41,24.14,27.35,14.33,46.57,1035.02,2045.04,3502.83,3105.00,3527.98,599.88,612.05,6.69,0000 0000 0000 0000 000000
2017-10-16 07:16:36,0.01,0.08,0.00,20.39,24.13,27.33,14.31,46.50,1035.10,2045.08,3502.56,3105.00,3527.97,600.00,612.37,6.74,0000 0000 0000 0000 000000
2017-10-16 07:21:38,0.01,0.08,0.00,20.43,24.13,27.33,14.37,46.55,1035.14,2045.14,3502.29,3105.00,3527.96,600.26,612.66,6.79,0000 0000 0000 0000 000000
2017-10-16 07:26:39,0.00,0.08,0.00,20.41,24.13,27.34,14.32,46.51,1035.16,2045.10,3502.03,3104.99,3527.77,600.27,612.55,6.84,0000 0000 0000 0000 000000
2017-10-16 07:31:40,0.00,0.08,0.00,20.40,24.12,27.33,14.30,46.56,1035.17,2045.07,3502.00,3104.99,3527.34,600.20,612.54,6.89,0000 0000 0000 0000 000000
2017-10-16 07:36:41,0.00,0.08,0.00,20.43,24.12,27.33,14.25,46.67,1035.17,2045.03,3502.00,3104.98,3527.06,599.40,611.64,6.94,0000 0000 0000 0000 000000
2017-10-16 07:41:42,0.00,0.08,0.00,20.40,24.12,27.33,14.39,46.56,1035.17,2045.06,3501.99,3104.98,3527.00,600.36,612.71,6.99,0000 0000 0000 0000 000000
2017-10-16 07:46:43,0.00,0.08,0.00,20.44,24.12,27.33,14.33,46.58,1035.17,2045.07,3501.95,3104.95,3527.00,599.80,611.94,7.04,0000 0000 0000 0000 000000
2017-10-16 07:51:44,0.01,0.08,0.00,20.44,24.12,27.30,14.27,46.45,1035.17,2045.04,3501.58,3104.80,3526.98,599.92,612.08,7.09,0000 0000 0000 0000 000000
2017-10-16 07:56:45,0.00,0.08,0.00,20.44,24.12,27.31,14.21,46.52,1035.18,2045.03,3501.20,3104.69,3526.95,599.82,612.12,7.14,0000 0000 0000 0000 000000
2017-10-16 08:01:47,-0.00,0.08,0.00,20.47,24.12,27.33,14.32,46.61,1035.19,2045.04,3501.11,3104.87,3526.93,600.12,612.32,7.19,0000 0000 0000 0000 000000
2017-10-16 08:06:48,0.00,0.08,0.00,20.46,24.13,27.33,14.36,46.64,1035.18,2045.03,3501.07,3104.92,3526.74,600.10,612.30,7.24,0000 0000 0000 0000 000000
2017-10-16 08:11:50,0.03,0.08,0.00,20.47,24.13,27.34,14.35,46.67,1035.21,2045.01,3500.83,3104.48,3526.07,600.23,612.38,7.29,0000 0000 0000 0000 000000
2017-10-16 08:16:51,0.08,0.09,0.00,20.45,24.13,27.33,14.32,46.64,1035.22,2045.00,3498.97,3103.08,3524.82,599.79,612.00,7.34,0000 0000 0000 0000 000000
2017-10-16 08:21:52,0.01,0.09,0.00,20.44,24.13,27.36,14.34,46.53,1035.27,2045.00,3498.63,3102.99,3524.52,599.67,611.93,7.39,0000 0000 0000 0000 000000
2017-10-16 08:26:53,0.13,0.09,0.00,20.48,24.14,27.34,14.36,46.38,1035.29,2045.00,3496.21,3101.62,3522.88,600.09,612.28,7.44,0000 0000 0000 0000 000000
2017-10-16 08:31:55,0.03,0.10,0.00,20.44,24.14,27.31,14.27,46.42,1035.37,2045.00,3494.92,3100.44,3521.80,599.37,611.76,7.49,0000 0000 0000 0000 000000
2017-10-16 08:36:56,0.02,0.10,0.00,20.48,24.14,27.36,14.22,46.41,1035.43,2045.00,3494.43,3100.08,3521.26,599.90,612.23,7.54,0000 0000 0000 0000 000000
2017-10-16 08:41:57,0.00,0.10,0.00,20.48,24.14,27.34,14.41,46.56,1035.55,2045.00,3494.03,3100.01,3521.00,600.05,612.40,7.59,0000 0000 0000 0000 000000
2017-10-16 08:46:58,0.00,0.10,0.00,20.47,24.15,27.35,14.34,46.52,1035.60,2045.00,3494.00,3100.00,3521.00,599.68,612.02,7.64,0000 0000 0000 0000 000000
2017-10-16 08:51:59,0.00,0.10,0.00,20.49,24.15,27.32,14.32,46.36,1035.63,2044.99,3494.00,3100.00,3521.00,600.01,612.44,7.69,0000 0000 0000 0000 000000
2017-10-16 08:57:00,0.00,0.10,0.00,20.48,24.15,27.34,14.29,46.38,1035.65,2045.00,3494.00,3100.00,3521.00,599.95,612.38,7.74,0000 0000 0000 0000 000000
2017-10-16 09:02:01,0.00,0.10,0.00,20.49,24.15,27.38,14.35,46.38,1035.65,2045.00,3493.98,3100.00,3520.99,600.18,612.53,7.79,0000 0000 0000 0000 000000
2017-10-16 09:07:02,0.00,0.10,0.00,20.47,24.15,27.36,14.29,46.59,1035.66,2045.00,3493.87,3100.00,3520.97,599.78,612.17,7.84,0000 0000 0000 0000 000000
2017-10-16 09:12:04,0.00,0.10,0.00,20.46,24.15,27.34,14.35,46.49,1035.66,2045.00,3493.60,3100.00,3520.98,600.39,612.92,7.89,0000 0000 0000 0000 000000
2017-10-16 09:17:05,0.00,0.10,0.00,20.49,24.15,27.38,14.21,46.47,1035.66,2045.00,3493.25,3100.00,3520.88,599.58,611.89,7.94,0000 0000 0000 0000 000000
2017-10-16 09:22:06,0.01,0.10,0.00,20.48,24.15,27.35,14.31,46.48,1035.66,2045.00,3493.06,3100.00,3520.40,599.80,612.19,7.99,0000 0000 0000 0000 000000
2017-10-16 09:27:08,0.00,0.10,0.00,20.49,24.15,27.35,14.30,46.51,1035.66,2045.00,3493.00,3099.99,3520.04,600.22,612.64,8.04,0000 0000 0000 0000 000000
2017-10-16 09:32:09,0.00,0.10,0.00,20.50,24.15,27.35,14.32,46.65,1035.66,2045.00,3493.00,3099.99,3520.01,599.76,612.12,8.09,0000 0000 0000 0000 000000
2017-10-16 09:37:10,0.00,0.10,0.00,20.47,24.15,27.35,14.30,46.50,1035.66,2045.00,3492.99,3099.99,3520.00,599.60,612.07,8.14,0000 0000 0000 0000 000000
2017-10-16 09:42:12,0.00,0.10,0.00,20.49,24.15,27.34,14.26,46.66,1035.66,2045.00,3492.68,3099.98,3520.00,599.76,612.35,8.19,0000 0000 0000 0000 000000
2017-10-16 09:47:13,0.00,0.10,0.00,20.47,24.15,27.34,14.30,46.60,1035.66,2045.01,3492.08,3099.96,3519.99,599.88,612.34,8.25,0000 0000 0000 0000 000000
2017-10-16 09:52:14,0.00,0.10,0.00,20.46,24.15,27.39,14.35,46.52,1035.66,2045.00,3492.01,3099.96,3519.96,600.19,612.57,8.30,0000 0000 0000 0000 000000
2017-10-16 09:57:15,0.00,0.10,0.00,20.48,24.15,27.37,14.32,46.63,1035.66,2045.01,3492.01,3099.96,3519.95,600.07,612.38,8.35,0000 0000 0000 0000 000000
2017-10-16 10:02:17,-0.00,0.10,0.00,20.45,24.15,27.38,14.37,46.65,1035.67,2045.01,3492.00,3099.97,3519.92,600.19,612.64,8.40,0000 0000 0000 0000 000000
2017-10-16 10:07:18,0.01,0.10,0.00,20.47,24.15,27.39,14.27,46.61,1035.66,2045.00,3491.99,3099.96,3519.36,599.83,612.33,8.45,0000 0000 0000 0000 000000
2017-10-16 10:12:19,0.01,0.10,0.00,20.45,24.15,27.35,14.40,46.73,1035.66,2045.01,3491.89,3099.83,3519.12,600.09,612.53,8.50,0000 0000 0000 0000 000000
2017-10-16 10:17:21,0.01,0.10,0.00,20.46,24.15,27.33,14.35,46.53,1035.66,2045.00,3491.29,3099.66,3519.01,599.77,612.20,8.55,0000 0000 0000 0000 000000
2017-10-16 10:22:22,-0.00,0.10,0.00,20.47,24.15,27.35,14.29,46.54,1035.66,2045.01,3491.12,3099.80,3519.00,600.09,612.49,8.60,0000 0000 0000 0000 000000
2017-10-16 10:27:23,0.00,0.10,0.00,20.43,24.15,27.34,14.29,46.61,1035.66,2045.02,3491.02,3099.73,3519.00,599.82,612.33,8.65,0000 0000 0000 0000 000000
2017-10-16 10:32:25,0.00,0.10,0.00,20.45,24.15,27.35,14.32,46.70,1035.66,2045.01,3491.00,3099.69,3519.00,600.17,612.52,8.70,0000 0000 0000 0000 000000
2017-10-16 10:37:26,0.01,0.10,0.00,20.43,24.15,27.35,14.27,46.65,1035.66,2045.00,3491.00,3099.42,3518.98,600.15,612.58,8.75,0000 0000 0000 0000 000000
2017-10-16 10:42:28,0.00,0.10,0.00,20.42,24.15,27.38,14.35,46.67,1035.66,2045.00,3491.00,3099.28,3518.96,599.96,612.42,8.80,0000 0000 0000 0000 000000
2017-10-16 10:47:29,0.01,0.10,0.00,20.43,24.15,27.36,14.36,46.68,1035.66,2045.00,3490.96,3099.10,3518.66,600.35,612.73,8.85,0000 0000 0000 0000 000000
2017-10-16 10:52:31,0.01,0.10,0.00,20.40,24.15,27.37,14.34,46.63,1035.66,2045.00,3490.67,3099.02,3518.18,600.01,612.54,8.90,0000 0000 0000 0000 000000
2017-10-16 10:57:32,0.01,0.10,0.00,20.43,24.15,27.36,14.38,46.67,1035.66,2045.00,3490.13,3099.00,3518.01,600.32,612.58,8.95,0000 0000 0000 0000 000000
2017-10-16 11:02:33,0.00,0.11,0.00,20.42,24.15,27.37,14.36,46.60,1035.66,2045.00,3490.02,3099.00,3518.00,600.00,612.52,9.00,0000 0000 0000 0000 000000
2017-10-16 11:07:34,0.00,0.10,0.00,20.40,24.14,27.36,14.25,46.76,1035.66,2045.00,3490.03,3099.00,3518.00,599.66,612.25,9.05,0000 0000 0000 0000 000000
2017-10-16 11:12:36,0.00,0.11,0.00,20.42,24.14,27.36,14.29,46.65,1035.67,2045.00,3490.01,3099.00,3517.98,600.13,612.58,9.10,0000 0000 0000 0000 000000
2017-10-16 11:17:37,0.00,0.11,0.00,20.38,24.13,27.35,14.38,46.61,1035.67,2045.00,3489.98,3098.99,3517.81,600.37,613.02,9.15,0000 0000 0000 0000 000000
2017-10-16 11:22:38,0.01,0.11,0.00,20.39,24.12,27.34,14.28,46.57,1035.67,2045.00,3489.77,3098.97,3517.35,599.87,612.42,9.20,0000 0000 0000 0000 000000
2017-10-16 11:27:39,0.01,0.11,0.00,20.38,24.12,27.34,14.35,46.66,1035.68,2045.00,3489.15,3098.96,3517.04,600.12,612.70,9.25,0000 0000 0000 0000 000000
2017-10-16 11:32:41,0.00,0.11,0.00,20.36,24.12,27.36,14.40,46.70,1035.68,2045.00,3489.02,3098.90,3517.02,600.06,612.76,9.30,0000 0000 0000 0000 000000
2017-10-16 11:37:42,0.00,0.11,0.00,20.39,24.12,27.34,14.37,46.67,1035.68,2045.00,3489.00,3098.81,3517.00,599.81,612.64,9.35,0000 0000 0000 0000 000000
2017-10-16 11:42:43,0.01,0.11,0.00,20.35,24.12,27.33,14.33,46.52,1035.68,2045.00,3489.00,3098.56,3516.98,600.07,612.69,9.40,0000 0000 0000 0000 000000
2017-10-16 11:47:44,-0.00,0.11,0.00,20.36,24.10,27.31,14.29,46.67,1035.68,2045.00,3489.00,3098.54,3516.98,600.17,612.86,9.45,0000 0000 0000 0000 000000
2017-10-16 11:52:45,0.01,0.11,0.00,20.35,24.10,27.33,14.31,46.59,1035.68,2045.00,3488.95,3098.18,3516.85,599.71,612.38,9.50,0000 0000 0000 0000 000000
2017-10-16 11:57:46,0.01,0.11,0.00,20.33,24.10,27.32,14.37,46.76,1035.68,2045.00,3488.74,3098.07,3516.47,600.28,613.07,9.55,0000 0000 0000 0000 000000
2017-10-16 12:02:47,0.00,0.11,0.00,20.35,24.10,27.30,14.34,46.58,1035.68,2045.00,3488.37,3098.17,3516.22,600.25,613.00,9.60,0000 0000 0000 0000 000000
2017-10-16 12:07:49,-0.00,0.11,0.00,20.32,24.10,27.29,14.36,46.73,1035.67,2045.00,3488.31,3098.38,3516.17,599.83,612.66,9.65,0000 0000 0000 0000 000000
2017-10-16 12:12:50,0.00,0.11,0.00,20.34,24.08,27.30,14.31,46.66,1035.67,2045.00,3488.14,3098.45,3516.06,599.68,612.54,9.70,0000 0000 0000 0000 000000
2017-10-16 12:17:51,0.00,0.11,0.00,20.34,24.07,27.27,14.35,46.71,1035.67,2045.00,3488.02,3098.39,3516.03,599.73,612.47,9.75,0000 0000 0000 0000 000000
2017-10-16 12:22:52,-0.01,0.11,0.00,20.32,24.07,27.29,14.36,46.62,1035.67,2045.00,3488.02,3098.61,3516.03,600.13,612.73,9.80,0000 0000 0000 0000 000000
2017-10-16 12:27:53,0.01,0.11,0.00,20.33,24.07,27.29,14.34,46.64,1035.67,2045.00,3488.00,3098.46,3516.00,599.72,612.32,9.85,0000 0000 0000 0000 000000
2017-10-16 12:32:54,-0.00,0.11,0.00,20.29,24.07,27.27,14.39,46.67,1035.68,2045.00,3488.00,3098.57,3516.00,600.07,612.89,9.90,0000 0000 0000 0000 000000
2017-10-16 12:37:55,0.01,0.11,0.00,20.32,24.06,27.26,14.45,46.52,1035.69,2045.00,3487.99,3098.51,3516.00,600.66,613.28,9.95,0000 0000 0000 0000 000000
2017-10-16 12:42:56,0.01,0.11,0.00,20.30,24.05,27.25,14.35,46.53,1035.73,2045.02,3487.78,3098.06,3515.97,600.46,613.34,10.00,0000 0000 0000 0000 000000
2017-10-16 12:47:58,0.02,0.11,0.00,20.30,24.05,27.25,14.25,46.47,1035.70,2045.03,3487.29,3098.03,3515.71,599.66,612.46,10.05,0000 0000 0000 0000 000000
2017-10-16 12:52:59,0.00,0.11,0.00,20.32,24.05,27.25,14.37,46.61,1035.70,2045.01,3487.04,3098.00,3515.19,599.97,612.75,10.10,0000 0000 0000 0000 000000
2017-10-16 12:58:00,0.00,0.11,0.00,20.28,24.05,27.24,14.32,46.56,1035.72,2045.02,3487.00,3098.00,3515.05,599.74,612.67,10.15,0000 0000 0000 0000 000000
2017-10-16 13:03:01,0.01,0.11,0.00,20.28,24.04,27.26,14.39,46.54,1035.74,2045.06,3486.97,3098.00,3515.00,600.14,613.18,10.20,0000 0000 0000 0000 000000